Weather History for Faith, SD

Change the Weather History Date:

Saturday, December 29, 2012

  Actual Average Record
Temperature  
Mean Temperature 20 °F 20 °F  
Max Temperature 30 °F 30 °F 55 °F (1999)
Min Temperature 10 °F 11 °F -10 °F (2014)
Degree Days  
Heating Degree Days 45 45  
Month to date heating degree days 1192 1273  
Since 1 July heating degree days 2826 3056  
Cooling Degree Days 0 0  
Month to date cooling degree days 0 0  
Year to date cooling degree days 971 635  
Moisture  
Dew Point 12 °F    
Average Humidity 76    
Maximum Humidity 88    
Minimum Humidity 63    
Precipitation  
Precipitation 0.00 in 0.02 in 0.34 in (2005)
Month to date precipitation 0.27 0.37  
Year to date precipitation 12.84 17.63  
Sea Level Pressure  
Sea Level Pressure 30.14 in    
Wind  
Wind Speed 12 mph (WSW)    
Max Wind Speed 20 mph    
Max Gust Speed 23 mph    
T = Trace of Precipitation, MM = Missing Value Source: NWS Daily Summary

Daily Weather History Graph

Daily Weather History Graph

Search for Another Location

Airport:

Trip Planner

Search our weather history database for the weather conditions in past years. The results will help you decide how hot, cold, wet, or windy it might be!

Date:

Astronomy

Dec. 29, 2012 Rise Set
Actual Time 7:26 AM MST 4:14 PM MST
Civil Twilight 6:52 AM MST 4:48 PM MST
Nautical Twilight 6:15 AM MST 5:25 PM MST
Astronomical Twilight 5:39 AM MST 6:01 PM MST
Moon 5:54 PM MST (12/29) 7:56 AM MST (12/29)
Length of Visible Light 9h 56m
Length of Day
8h 48m
Full, 98% of the Moon is Illuminated
Dec 29
Full
Jan 4
Last Quarter
Jan 11
New
Jan 18
First Quarter
Jan 26
Full

Hourly Weather History & Observations

Time (MST) Temp. Windchill Dew Point Humidity Pressure Visibility Wind Dir Wind Speed Gust Speed Precip Events Conditions
12:56 AM 14.0 °F -0.8 °F 10.0 °F 84% 30.14 in - West 13.8 mph - N/A   Unknown
1:56 AM 14.0 °F -0.8 °F 9.0 °F 80% 30.15 in - West 13.8 mph - N/A   Unknown
2:56 AM 15.1 °F -0.1 °F 10.0 °F 80% 30.14 in - West 15.0 mph - N/A   Unknown
3:56 AM 16.0 °F 0.1 °F 10.0 °F 77% 30.14 in - West 17.3 mph - N/A   Unknown
4:56 AM 15.1 °F -1.1 °F 10.0 °F 80% 30.15 in - West 17.3 mph - N/A   Unknown
5:56 AM 16.0 °F 0.6 °F 10.0 °F 77% 30.15 in - West 16.1 mph - N/A   Unknown
6:56 AM 17.1 °F 2.0 °F 10.0 °F 74% 30.16 in - WNW 16.1 mph - N/A   Unknown
7:56 AM 16.0 °F 1.7 °F 9.0 °F 74% 30.17 in - West 13.8 mph - N/A   Unknown
8:56 AM 18.0 °F 3.1 °F 10.0 °F 71% 30.18 in - WNW 16.1 mph - N/A   Unknown
9:56 AM 19.9 °F 6.7 °F 12.0 °F 71% 30.21 in - West 13.8 mph - N/A   Unknown
10:56 AM 23.0 °F 13.1 °F 14.0 °F 68% 30.19 in - West 9.2 mph - N/A   Unknown
11:56 AM 25.0 °F 14.8 °F 15.1 °F 66% 30.17 in - West 10.4 mph - N/A   Unknown
12:56 PM 26.1 °F 15.0 °F 16.0 °F 66% 30.14 in - West 12.7 mph - N/A   Unknown
1:56 PM 27.0 °F 16.1 °F 16.0 °F 63% 30.13 in - West 12.7 mph - N/A   Unknown
2:56 PM 26.1 °F 18.4 °F 15.1 °F 63% 30.14 in - West 6.9 mph - N/A   Unknown
3:56 PM 21.9 °F 17.2 °F 12.9 °F 68% 30.14 in - WSW 3.5 mph - N/A   Unknown
4:56 PM 19.9 °F 12.1 °F 12.0 °F 71% 30.14 in - SW 5.8 mph - N/A   Unknown
5:56 PM 18.0 °F 4.8 °F 12.0 °F 78% 30.15 in - South 12.7 mph - N/A   Unknown
6:56 PM 19.0 °F 9.0 °F 12.0 °F 74% 30.14 in - SW 8.1 mph - N/A   Unknown
7:56 PM 21.0 °F 14.6 °F 12.9 °F 71% 30.12 in - SSW 4.6 mph - N/A   Unknown
8:56 PM 15.8 °F 3.4 °F 10.4 °F 79% 29.98 in - South 10.4 mph - N/A   Unknown
9:00 PM - - - N/A% - - North - - N/A   Unknown
9:56 PM 19.9 °F 8.6 °F 12.9 °F 74% 30.10 in - SSW 10.4 mph - N/A   Unknown
10:56 PM 21.0 °F 9.9 °F 12.0 °F 68% 30.09 in - SSE 10.4 mph - N/A   Unknown
11:56 PM 18.0 °F 7.7 °F 10.0 °F 71% 30.06 in - SSE 8.1 mph - N/A   Unknown